Theta_e
303 305 305 306 308 309 309 310 314 320 322 323 325 325 326 326 325 324 324 324 323 323 323 323 321 322 322 321 319 318 316 315 310 296 297 297 296 296 295 295 295 294 295
302 303 304 305 305 305 305 305 307 311 318 323 325 325 325 325 324 324 323 323 322 321 322 322 321 322 321 321 319 317 316 316 307 295 294 293 293 292 291 290 290 291 291
300 299 299 300 301 301 300 302 303 306 310 318 323 322 322 323 323 323 323 322 321 322 321 320 320 319 319 319 319 317 317 315 307 295 293 293 289 289 287 287 287 287 289
297 296 296 296 296 296 298 298 299 301 304 310 318 323 322 321 321 320 321 320 319 319 319 319 319 319 319 319 318 316 315 311 303 299 294 291 288 287 287 284 283 286 285
294 294 293 293 294 294 295 295 297 298 301 306 310 322 321 320 319 318 318 317 317 316 316 317 318 315 309 313 318 317 315 308 301 297 292 288 286 285 285 286 284 283 282
291 290 290 290 291 292 292 293 295 296 297 299 304 310 320 318 305 302 311 315 315 314 314 314 315 306 306 301 301 301 309 306 301 296 293 289 287 286 286 284 281 280 279
287 287 287 288 288 289 291 292 293 294 294 296 299 304 317 318 301 301 301 314 313 313 312 309 305 304 304 305 297 297 297 297 299 301 294 293 287 288 287 284 284 284 281
284 283 284 285 286 288 290 290 291 292 293 294 296 302 310 312 298 298 298 308 306 300 297 296 300 293 291 295 291 290 291 298 297 299 299 296 294 291 290 289 286 281 281
281 281 282 284 285 287 287 288 290 291 292 294 296 296 298 302 293 295 298 295 290 287 286 286 287 287 290 293 290 288 286 285 289 294 296 294 292 291 290 285 282 281 277
280 280 282 284 285 285 286 288 288 289 291 293 292 291 290 292 291 292 296 292 287 286 285 285 287 287 289 289 290 288 286 284 286 287 288 289 289 287 287 289 287 285 277
280 281 281 283 283 285 285 285 285 287 291 290 287 287 288 288 289 291 292 293 289 285 284 284 285 287 288 289 288 287 287 286 284 284 284 284 284 284 284 285 285 284 280
279 280 280 282 282 283 283 283 284 285 288 287 285 285 285 285 287 288 289 288 288 285 283 284 285 286 286 285 284 284 284 284 284 282 281 279 279 278 278 278 278 278 279
278 278 278 280 280 281 281 281 281 283 286 286 284 284 284 284 285 286 286 285 284 282 283 285 285 284 284 283 283 283 283 282 281 279 277 276 276 276 276 276 277 278 278
277 276 277 277 278 278 278 280 281 281 282 285 285 284 283 282 282 282 283 283 284 283 282 280 279 279 279 279 279 279 280 280 279 277 275 275 276 275 275 276 274 275 274
276 277 276 277 275 275 276 276 279 281 282 282 285 284 282 280 281 282 282 282 281 279 278 278 278 277 276 276 276 277 277 277 276 276 275 275 274 274 274 275 275 274 272
276 276 274 273 273 273 272 273 278 281 283 284 285 284 282 283 284 284 284 282 281 280 279 277 276 276 275 275 275 275 275 275 276 276 275 275 274 274 274 275 275 274 272
274 275 273 272 273 273 273 273 272 276 281 283 284 284 284 284 284 283 282 282 282 280 277 276 275 275 275 275 275 274 274 275 276 276 275 275 274 274 274 273 273 273 271
273 274 274 273 274 274 273 273 272 273 274 276 281 282 283 283 283 283 282 279 275 276 275 275 274 275 274 274 274 274 275 275 275 275 274 274 274 273 273 272 272 270 270
273 273 274 274 275 274 274 273 272 271 272 272 274 275 276 279 279 279 278 275 273 273 274 274 274 274 274 274 274 274 274 274 274 273 273 273 273 272 271 271 270 270 270
273 274 274 274 274 273 273 273 272 272 271 272 272 272 274 274 273 273 274 274 274 273 273 273 273 274 274 274 273 273 273 273 272 272 272 272 272 272 271 270 270 269 269
273 274 274 273 272 272 272 271 271 271 271 271 271 273 273 272 271 271 272 272 272 273 273 273 273 273 274 274 273 273 272 272 272 272 271 271 271 270 270 270 269 269 268
273 273 273 272 272 271 271 271 271 270 270 270 270 271 272 271 271 271 272 272 272 273 273 273 272 272 272 272 272 272 271 271 271 271 271 271 270 270 270 269 268 268 268
271 271 272 272 272 271 271 270 270 269 269 269 269 268 269 268 268 268 268 270 270 270 271 270 270 269 270 270 271 272 271 270 271 271 270 270 269 269 268 267 267 266 266
271 271 271 271 271 270 270 269 269 269 268 268 268 267 267 267 267 267 267 268 267 267 268 268 268 268 267 267 268 268 268 269 270 270 270 268 267 267 267 266 265 264 263
270 270 269 270 270 269 269 269 268 268 268 267 267 267 267 267 267 266 266 266 265 265 264 265 265 265 264 264 264 265 267 267 267 268 268 267 266 265 265 264 263 262 261
270 270 269 269 269 269 268 268 267 267 267 267 267 266 266 266 266 266 265 265 264 263 263 263 263 263 263 263 263 264 264 265 265 266 266 266 264 264 263 262 261 261 259
Wind_Speed
6 5 4 6 6 5 5 6 8 7 6 6 9 10 11 12 11 12 11 11 13 12 11 13 14 13 9 9 10 11 12 12 11 3 3 7 6 11 9 10 9 11 10
9 7 7 6 7 6 6 8 8 8 10 7 7 9 10 12 13 13 12 11 13 13 13 13 12 9 12 10 11 14 13 11 7 9 8 4 5 7 10 11 8 8 10
10 10 9 9 7 7 9 8 9 10 11 11 6 8 9 11 12 13 13 12 12 13 12 12 10 8 9 9 9 12 14 12 10 10 7 4 4 7 8 8 9 9 8
10 10 9 9 9 9 8 8 9 8 9 10 10 9 11 11 12 11 12 11 10 10 9 9 10 11 13 11 8 13 13 11 11 12 8 9 8 7 7 11 8 5 8
10 9 10 10 10 10 9 9 9 9 9 10 12 11 10 11 10 12 12 11 11 10 10 10 11 12 13 13 9 12 12 12 12 12 10 9 8 11 13 8 7 9 4
9 10 11 11 10 10 11 11 11 10 10 11 10 14 10 9 14 16 14 11 11 10 10 10 10 12 12 16 15 11 16 16 14 11 10 14 15 14 9 12 12 9 5
10 10 11 11 12 11 11 12 12 14 12 12 12 14 13 12 15 17 17 11 11 10 10 8 6 6 10 8 12 14 12 16 25 21 21 18 16 19 16 16 14 9 4
10 11 12 12 12 12 12 12 13 13 12 10 11 13 15 8 12 17 17 8 7 5 4 5 7 7 5 8 6 4 2 13 14 11 17 21 16 21 20 15 15 10 10
12 12 12 12 14 14 13 13 12 11 12 10 9 12 11 9 9 13 12 7 6 5 3 2 3 4 6 11 8 9 6 4 6 4 13 17 19 28 20 16 13 14 5
13 13 13 14 14 14 13 13 11 11 12 10 6 6 6 6 7 7 10 7 7 5 3 4 3 4 11 10 10 12 10 6 10 12 13 18 20 17 21 6 16 16 9
12 14 14 13 14 12 14 12 12 12 11 7 4 5 4 5 4 6 6 9 8 7 4 3 2 9 12 12 9 5 6 13 12 12 11 11 13 11 7 8 6 9 7
15 14 14 14 12 11 14 13 13 12 9 6 2 2 3 4 6 3 4 5 12 9 7 6 7 15 17 17 14 21 19 12 10 11 10 9 10 9 10 10 11 10 7
15 15 14 15 13 12 12 12 11 11 9 6 2 1 1 3 4 6 11 8 16 11 7 14 20 24 25 19 20 18 13 9 9 10 10 9 9 11 13 13 12 17 15
16 16 13 14 14 13 8 8 9 9 9 6 2 2 1 3 4 4 3 7 18 18 20 12 11 14 16 14 11 10 8 7 9 10 11 9 11 11 11 9 11 12 12
12 11 13 10 10 10 8 6 7 9 9 8 6 3 5 4 4 6 5 3 5 8 18 11 9 9 10 10 10 10 10 9 11 10 11 11 12 11 11 8 7 8 10
11 9 9 8 8 6 6 7 12 14 18 15 9 4 2 9 13 12 11 14 15 12 4 12 10 9 10 10 10 10 9 12 10 11 11 11 12 11 10 8 8 9 10
9 9 7 7 7 7 7 6 7 8 18 24 16 3 7 13 18 20 24 23 13 5 2 6 11 10 10 10 10 10 11 10 12 11 12 12 11 10 11 9 9 9 9
9 11 7 7 7 6 6 6 6 8 9 10 18 17 17 15 17 19 19 17 10 9 5 6 8 10 10 11 11 11 11 10 11 12 11 10 10 10 10 9 8 9 8
7 6 7 6 6 7 6 7 7 8 8 8 10 13 15 22 21 20 16 8 10 11 8 8 8 9 10 10 11 10 11 11 9 11 9 9 8 9 9 8 9 9 8
6 10 8 6 6 6 6 6 7 7 8 8 8 7 7 9 8 7 7 8 9 10 11 10 9 9 9 11 10 10 11 11 10 9 9 8 8 8 9 9 7 8 7
5 6 9 6 6 6 6 7 7 7 8 8 8 8 11 8 8 8 8 8 9 9 10 10 10 10 9 10 10 9 10 10 9 9 9 8 8 9 8 8 7 7 6
4 5 5 5 6 6 7 6 7 8 8 8 7 9 13 9 8 9 10 10 9 10 8 10 10 10 10 9 9 9 10 10 9 8 9 9 8 8 8 7 7 6 6
4 5 5 5 6 7 7 7 7 7 8 8 8 8 9 9 9 10 10 10 10 10 10 10 11 11 10 10 9 8 9 8 7 8 9 8 8 8 7 7 7 6 5
4 5 5 5 6 6 6 7 7 9 8 8 8 8 9 8 9 11 10 10 10 11 11 10 11 12 11 10 8 8 8 7 7 8 10 9 8 8 7 7 6 6 5
4 4 5 5 5 5 6 6 7 7 7 7 7 8 8 8 9 10 10 10 11 11 12 10 9 13 14 15 13 12 12 13 9 9 7 9 10 10 7 6 6 6 5
4 5 4 4 5 5 5 6 6 6 7 7 7 8 8 8 8 9 10 11 10 10 11 10 12 15 14 11 12 13 13 12 10 11 7 7 8 7 6 7 8 5 6
Wind_Direction
350 358 23 35 3 348 340 340 337 311 277 250 226 215 201 192 190 192 193 182 196 202 201 207 211 209 214 214 209 193 197 195 187 120 113 132 108 124 114 106 108 107 105
6 353 15 16 5 349 354 348 332 324 316 269 235 216 213 203 191 196 196 192 198 205 205 211 213 208 218 226 215 198 197 202 144 142 140 133 114 126 122 112 109 102 112
342 352 4 8 1 349 346 340 339 335 320 306 244 220 213 207 196 197 197 196 200 205 203 203 205 202 223 227 226 218 203 189 164 148 137 141 109 143 119 101 104 103 107
346 341 354 350 341 343 336 335 327 320 308 304 294 236 216 206 204 200 194 188 197 198 199 204 212 221 227 226 221 213 190 166 146 149 131 143 142 149 134 134 124 124 123
337 330 339 341 339 334 334 330 319 315 314 309 312 265 221 209 207 199 193 193 198 206 206 209 213 214 219 221 225 202 187 170 157 152 149 144 145 161 164 159 138 133 108
335 331 340 336 333 333 331 327 323 322 325 321 311 305 233 211 204 199 183 189 190 197 213 213 211 206 217 212 212 220 175 164 160 158 160 169 170 172 155 155 146 141 157
337 341 337 327 322 332 326 326 326 326 323 322 312 305 272 222 203 202 199 187 186 197 207 204 210 207 203 208 220 202 184 194 174 169 171 182 165 175 158 155 168 157 140
337 340 335 324 325 328 327 325 322 321 316 311 307 304 288 236 188 196 194 184 168 157 167 186 201 201 205 184 151 117 154 193 178 188 184 174 176 167 172 168 152 113 104
343 334 324 324 325 326 325 322 319 314 310 302 299 301 304 278 195 195 169 135 117 112 97 68 155 167 169 160 143 140 105 38 48 81 155 145 158 159 149 132 141 130 117
337 325 323 326 328 324 321 318 315 312 300 295 292 291 308 308 334 209 148 128 128 127 97 85 113 168 152 154 155 156 145 145 123 111 109 115 127 132 146 152 157 155 131
326 328 331 331 329 323 322 318 318 313 304 305 305 312 339 343 28 312 169 155 154 139 130 112 96 129 125 128 108 141 140 134 115 106 106 118 115 120 105 108 111 140 126
337 333 334 336 335 333 324 324 324 313 303 289 280 328 3 12 13 83 283 146 140 133 128 113 119 110 106 105 99 109 111 111 116 114 107 96 101 96 87 81 78 79 71
341 339 336 337 338 332 330 324 327 320 305 275 251 226 351 25 47 76 97 122 116 110 114 118 116 108 102 94 106 108 107 104 108 100 98 97 93 93 95 90 85 87 80
343 339 336 337 337 334 327 329 330 318 306 295 232 195 145 108 93 77 91 111 112 111 113 103 101 98 93 96 88 75 75 86 105 108 107 99 99 97 98 106 108 101 94
338 335 335 336 326 322 315 302 322 320 305 301 283 182 171 170 151 128 130 121 130 137 125 118 118 108 104 96 90 87 92 93 98 105 110 113 102 105 105 111 100 99 109
337 341 332 324 313 304 305 315 314 347 2 356 320 170 104 133 142 133 127 114 125 142 121 127 121 121 116 112 108 105 101 107 108 114 111 107 110 111 110 101 99 103 108
335 331 321 316 322 330 332 329 328 330 19 31 31 80 133 145 135 129 126 126 122 91 98 112 118 117 114 112 111 112 111 110 115 108 109 109 107 105 109 106 106 107 101
334 324 319 325 333 335 341 349 360 10 18 19 32 46 66 91 108 116 113 102 87 67 69 84 99 110 111 111 112 114 110 103 101 102 101 103 107 111 113 111 112 114 111
329 333 334 337 345 359 2 14 18 30 35 33 29 32 35 58 68 73 79 82 96 92 76 80 80 90 101 102 104 103 104 101 102 102 100 105 108 115 111 111 108 108 111
336 344 352 349 357 6 12 17 24 30 38 39 38 33 39 47 44 46 58 83 89 93 101 91 83 85 89 94 93 98 98 98 99 99 100 103 103 103 105 108 107 106 98
338 350 358 0 9 19 22 24 32 36 39 40 35 32 45 62 61 58 57 62 73 82 89 93 96 91 89 88 94 95 94 95 98 101 103 100 102 100 95 95 96 97 102
348 356 5 7 15 25 31 28 34 38 37 38 30 34 44 54 57 66 66 65 66 69 73 83 82 79 79 86 92 95 96 98 98 98 99 99 97 96 98 99 97 94 96
0 2 14 18 19 27 34 36 41 41 42 42 40 39 39 47 51 56 57 58 60 62 62 66 72 69 64 64 66 77 90 92 94 101 104 102 101 101 101 101 101 96 91
11 17 20 26 31 33 33 37 43 46 47 46 47 49 47 48 54 56 57 59 61 57 55 59 65 73 72 68 68 70 73 72 80 87 96 101 102 101 98 97 98 103 95
19 22 25 24 29 36 41 42 44 44 46 47 50 53 54 54 54 55 59 60 60 60 56 57 61 66 65 69 68 65 72 74 75 83 87 95 100 99 101 102 100 88 80
27 30 29 27 30 36 43 49 49 47 50 49 51 54 56 57 56 59 62 65 67 65 66 61 63 66 67 63 67 66 66 69 75 81 88 94 99 96 93 91 87 89 91